Location: ??
(34.9170°N, 135.5016°E)
Time: 14:00:23
(UTC+00:00)

S-56A Canister/Altair - Pass Details

Date: 08 March 2021
Orbit: 632 x 2500 km, 38.9° (Epoch: 16 April)

Event Time Altitude Azimuth Distance (km) Brightness Sun altitude
Rises 11:38:55 0° 285° (WNW) 6,095 13.2 -33.0°
Reaches altitude 10° 11:45:01 10° 270° (W) 4,888 12.3 -34.2°
Maximum altitude 11:52:34 17° 235° (SW) 3,924 11.4 -35.6°
Drops below altitude 10° 11:59:03 10° 199° (SSW) 4,055 11.1 -36.9°
Enters shadow 12:00:52 - 191° (S) 4,273 11.2 -37.2°
